Dewpoint
-5 -5 -4 -4 -4 -4 -3 -3 -3 -4 -4 -4 -4 -4 -4 -4 -5 -5 -5 -6 -6 -6 -7 -7 -7 -7 -7 -7 -7 -7 -7 -7 -7 -7 -7 -7 -8 -8 -8 -8 -8 -8
-9 -9 -8 -7 -7 -7 -6 -6 -5 -5 -5 -5 -5 -5 -5 -6 -6 -6 -6 -7 -7 -7 -8 -8 -8 -8 -8 -8 -8 -8 -8 -8 -8 -8 -8 -8 -8 -8 -8 -9 -9 -9
-10 -10 -11 -10 -10 -10 -10 -9 -9 -8 -8 -8 -8 -8 -7 -7 -7 -7 -7 -7 -8 -8 -8 -8 -9 -9 -9 -9 -9 -9 -9 -9 -9 -9 -9 -9 -9 -9 -9 -9 -9 -9
-9 -9 -10 -10 -10 -11 -11 -11 -11 -11 -11 -11 -11 -11 -10 -10 -10 -9 -9 -9 -8 -8 -8 -9 -9 -9 -9 -9 -9 -9 -9 -9 -9 -9 -9 -9 -9 -9 -9 -10 -10 -10
-9 -9 -9 -9 -9 -10 -10 -10 -10 -11 -11 -11 -11 -12 -12 -12 -12 -12 -12 -11 -11 -10 -10 -9 -9 -9 -8 -8 -9 -9 -9 -9 -9 -9 -9 -9 -10 -10 -10 -10 -10 -10
-9 -9 -9 -9 -9 -9 -9 -9 -9 -10 -10 -10 -11 -11 -11 -12 -12 -12 -12 -12 -12 -12 -11 -11 -10 -9 -9 -8 -8 -8 -9 -9 -9 -9 -9 -10 -10 -10 -10 -10 -10 -10
-10 -10 -10 -9 -9 -9 -9 -9 -9 -9 -9 -9 -9 -10 -10 -11 -11 -11 -12 -12 -12 -12 -12 -12 -11 -10 -9 -9 -8 -8 -8 -9 -9 -9 -9 -9 -10 -10 -10 -10 -10 -10
-10 -10 -10 -10 -10 -10 -9 -9 -9 -9 -9 -9 -9 -9 -9 -9 -9 -9 -10 -10 -11 -11 -11 -11 -11 -11 -10 -9 -9 -8 -8 -8 -9 -9 -9 -9 -9 -10 -10 -10 -10 -10
-11 -11 -11 -11 -11 -11 -10 -10 -10 -10 -9 -9 -9 -9 -9 -8 -8 -8 -8 -9 -9 -9 -10 -10 -10 -10 -10 -9 -9 -9 -8 -8 -8 -9 -9 -9 -9 -9 -9 -10 -10 -10
-12 -12 -12 -12 -11 -11 -11 -11 -11 -11 -11 -10 -10 -10 -10 -9 -9 -9 -9 -8 -8 -8 -8 -9 -9 -10 -10 -10 -9 -9 -9 -8 -8 -8 -8 -9 -9 -9 -9 -9 -10 -10
-14 -14 -13 -13 -13 -13 -13 -12 -12 -12 -12 -12 -12 -11 -11 -11 -11 -11 -10 -10 -10 -9 -9 -9 -9 -9 -9 -10 -10 -10 -9 -9 -9 -8 -8 -8 -8 -8 -9 -9 -9 -9
-15 -15 -15 -14 -14 -14 -14 -14 -14 -13 -13 -13 -13 -13 -13 -12 -12 -12 -12 -12 -11 -11 -11 -10 -10 -9 -9 -9 -9 -10 -10 -10 -10 -9 -9 -9 -9 -9 -9 -9 -9 -9
-15 -15 -15 -15 -15 -15 -15 -15 -15 -14 -14 -14 -14 -14 -14 -13 -13 -13 -13 -13 -12 -12 -12 -12 -11 -11 -10 -10 -9 -9 -9 -9 -10 -10 -10 -9 -9 -9 -9 -9 -9 -9
-16 -16 -16 -16 -16 -16 -15 -15 -15 -15 -15 -15 -15 -14 -14 -14 -14 -14 -14 -13 -13 -13 -13 -13 -12 -12 -11 -11 -10 -10 -10 -9 -9 -9 -9 -9 -9 -9 -9 -9 -9 -9
-16 -16 -16 -16 -16 -16 -16 -16 -16 -16 -15 -15 -15 -15 -15 -15 -15 -14 -14 -14 -14 -14 -13 -13 -13 -13 -12 -12 -11 -11 -11 -10 -10 -9 -9 -9 -9 -9 -9 -9 -9 -9
-17 -17 -17 -16 -16 -16 -16 -16 -16 -16 -16 -16 -16 -15 -15 -15 -15 -15 -15 -14 -14 -14 -14 -14 -13 -13 -13 -13 -12 -12 -11 -11 -11 -11 -10 -10 -10 -10 -10 -10 -9 -9
-17 -17 -17 -17 -17 -17 -17 -17 -17 -17 -16 -16 -16 -16 -16 -16 -15 -15 -15 -15 -15 -15 -14 -14 -14 -14 -13 -13 -13 -13 -12 -12 -12 -12 -11 -11 -11 -11 -11 -10 -10 -10
-17 -17 -17 -17 -17 -17 -18 -18 -17 -17 -17 -17 -17 -17 -17 -16 -16 -16 -16 -16 -15 -15 -15 -15 -15 -14 -14 -14 -14 -13 -13 -13 -13 -13 -12 -12 -12 -12 -11 -11 -11 -11
-18 -18 -18 -18 -18 -19 -19 -19 -19 -18 -18 -18 -18 -18 -18 -18 -17 -17 -17 -16 -16 -16 -16 -16 -15 -15 -15 -15 -14 -14 -14 -14 -14 -13 -13 -13 -13 -12 -12 -12 -12 -12
-18 -18 -18 -19 -19 -20 -21 -21 -21 -20 -20 -20 -20 -20 -20 -20 -20 -19 -18 -17 -17 -17 -16 -16 -16 -16 -16 -16 -15 -15 -15 -15 -15 -14 -14 -14 -14 -14 -13 -13 -13 -13
-18 -18 -19 -20 -21 -22 -23 -23 -23 -23 -23 -23 -23 -24 -24 -25 -24 -23 -22 -20 -19 -18 -18 -17 -17 -17 -17 -16 -16 -16 -16 -16 -16 -16 -15 -15 -15 -15 -14 -14 -14 -14
-18 -19 -20 -21 -22 -24 -25 -25 -26 -26 -26 -26 -26 -27 -28 -28 -28 -28 -27 -26 -25 -23 -22 -21 -20 -19 -18 -17 -17 -17 -16 -16 -17 -17 -17 -17 -16 -16 -16 -15 -15 -15
-19 -21 -22 -23 -24 -25 -26 -27 -27 -28 -28 -28 -29 -29 -30 -30 -31 -31 -31 -31 -30 -30 -29 -28 -26 -25 -23 -21 -20 -18 -17 -17 -17 -17 -17 -17 -17 -17 -17 -17 -16 -16
-20 -22 -24 -25 -26 -27 -28 -29 -30 -30 -30 -31 -31 -31 -31 -31 -31 -32 -32 -32 -32 -32 -32 -32 -32 -31 -30 -29 -27 -24 -22 -20 -20 -21 -21 -21 -21 -20 -20 -19 -18 -18
-22 -24 -25 -26 -27 -29 -30 -30 -31 -31 -31 -31 -30 -30 -30 -30 -30 -30 -30 -30 -30 -30 -30 -30 -31 -31 -31 -31 -31 -30 -28 -25 -24 -25 -27 -27 -25 -24 -24 -24 -23 -22
-24 -25 -27 -28 -29 -30 -31 -31 -30 -30 -30 -30 -30 -29 -29 -29 -29 -29 -30 -29 -29 -29 -29 -29 -29 -29 -29 -29 -29 -30 -29 -25 -23 -24 -26 -24 -22 -22 -23 -25 -27 -28
Wind_Speed
12 15 17 19 21 22 24 26 28 29 30 32 33 34 34 33 32 31 31 30 29 29 29 28 29 29 30 31 32 34 35 37 37 38 39 41 41 42 42 43 43 44
10 9 10 11 13 15 18 20 23 24 26 26 27 28 29 29 29 29 30 29 28 28 27 27 27 27 28 29 30 32 33 35 36 36 37 39 40 41 41 41 41 42
14 13 12 11 11 11 11 13 15 17 19 20 21 23 24 25 25 26 27 27 27 27 26 26 27 27 27 28 28 30 32 33 34 34 35 37 38 39 40 40 41 41
16 15 14 14 13 12 12 12 13 13 14 15 16 18 19 20 21 22 24 25 25 26 25 26 26 26 27 27 28 29 31 32 32 33 35 36 37 38 38 39 40 41
18 18 17 16 15 15 15 15 15 15 15 16 16 17 18 19 20 21 22 23 23 24 24 24 25 26 26 26 27 29 31 31 32 32 34 36 36 36 37 38 39 40
20 19 19 18 18 17 17 17 17 17 17 18 18 18 19 20 20 21 22 23 23 24 24 25 25 25 26 26 27 29 31 31 31 32 34 35 36 36 36 38 39 39
22 22 21 20 19 19 18 18 18 18 18 19 19 19 20 20 21 22 22 23 24 24 25 25 26 26 26 26 27 29 30 31 31 32 34 35 35 36 37 38 39 40
23 22 22 21 21 20 19 19 18 19 19 20 20 20 20 21 22 22 23 23 24 24 25 25 26 26 26 26 27 29 29 30 31 31 33 34 35 36 37 38 39 40
24 23 22 22 21 21 21 21 21 21 20 21 21 21 21 22 22 23 24 24 24 25 25 25 26 26 26 27 28 28 28 29 30 30 31 33 35 36 37 37 39 40
26 25 25 24 23 23 23 22 22 22 22 22 22 22 22 22 23 23 24 24 25 25 25 25 26 26 26 27 28 28 29 29 29 30 31 32 34 35 35 37 38 40
28 28 27 27 26 25 25 24 24 23 23 23 23 24 24 24 24 24 24 24 25 25 25 25 25 25 26 26 27 27 29 30 30 31 31 32 33 34 35 36 38 39
30 29 29 28 28 28 27 27 26 26 25 25 25 25 25 25 25 24 24 24 25 24 24 24 24 24 25 25 26 26 27 28 29 31 32 33 34 35 35 36 37 39
31 30 30 29 29 29 28 28 27 27 27 26 26 25 25 25 25 24 24 24 25 25 25 25 25 25 25 25 25 25 26 27 28 29 30 32 34 35 36 37 37 38
31 31 30 29 29 29 28 28 27 27 27 26 26 25 25 25 25 25 25 24 24 25 25 25 25 25 25 25 25 25 25 26 27 28 29 30 32 33 35 36 37 38
32 31 31 29 29 29 28 28 27 27 26 25 25 25 24 24 24 24 24 24 24 24 24 24 24 24 24 24 24 24 24 25 26 26 27 28 30 31 32 34 36 37
32 32 31 30 29 28 27 26 26 25 25 25 24 23 23 23 23 23 23 23 23 23 23 23 23 23 22 22 21 21 22 23 24 25 26 26 27 28 30 31 32 34
33 32 31 30 29 28 27 26 25 24 24 23 23 22 22 22 22 22 21 22 22 22 22 21 20 20 20 19 19 20 20 21 23 24 24 25 25 26 27 29 29 30
33 32 30 29 27 26 25 24 24 23 22 22 21 20 20 20 20 20 19 20 20 19 19 19 18 18 17 16 16 16 17 18 20 22 23 24 24 25 26 27 28 29
31 30 29 27 26 25 24 23 22 21 21 21 20 19 19 18 18 18 18 18 19 18 18 17 17 16 15 14 13 12 13 16 19 20 22 23 24 25 26 27 27 28
30 28 27 25 24 23 22 21 21 20 20 20 19 18 18 18 17 17 17 17 18 18 17 17 17 17 15 15 13 11 13 18 20 19 21 22 22 24 25 26 26 27
29 27 25 24 22 21 20 20 20 19 19 19 19 18 18 18 18 18 18 18 18 19 18 17 17 17 16 16 15 12 14 20 22 20 21 21 21 22 23 23 24 25
27 26 24 23 22 21 20 20 19 19 19 20 19 18 19 18 18 18 19 19 19 20 20 18 18 18 16 16 16 14 16 22 24 22 22 21 21 21 22 22 22 22
26 25 24 22 21 21 21 20 20 20 20 20 20 20 19 19 19 19 20 21 20 20 21 20 19 18 17 16 16 15 16 21 24 23 23 22 22 23 23 23 22 21
24 23 23 22 21 21 21 21 20 20 20 20 20 21 20 20 20 19 19 20 20 20 20 20 19 18 17 16 16 15 16 19 22 24 23 23 23 23 23 23 23 21
22 21 21 21 21 20 20 20 20 19 19 19 19 20 20 19 19 18 18 18 18 19 19 19 18 17 17 16 15 15 16 17 20 23 23 22 22 22 23 23 22 22
21 20 20 20 20 19 19 20 20 19 19 18 18 18 18 18 18 17 17 17 17 17 17 18 18 17 16 16 16 16 15 16 19 21 20 20 21 22 24 25 24 23
Wind_Direction
286 278 273 271 271 274 275 276 277 279 281 282 283 284 284 284 284 282 280 279 278 277 277 277 276 276 276 275 274 274 273 272 271 271 270 268 268 267 266 266 265 264
2 344 323 305 294 287 281 278 277 277 277 278 279 280 281 282 282 281 280 278 276 273 273 272 272 272 273 273 273 273 272 271 270 270 269 268 268 268 267 266 266 265
9 5 360 351 341 329 314 303 294 288 284 281 279 278 277 276 276 275 276 275 273 271 270 269 269 269 269 270 271 271 270 270 270 269 269 268 268 267 267 267 266 266
351 349 348 343 339 334 327 320 314 306 300 295 291 288 284 281 279 276 274 273 271 269 268 268 268 268 268 268 269 268 268 269 269 270 269 268 267 267 267 267 266 266
343 340 337 334 330 325 321 316 313 309 305 301 298 294 291 289 287 285 283 280 278 275 273 271 270 269 269 268 268 267 267 268 268 269 268 268 267 267 267 267 266 266
339 336 333 330 326 322 318 315 311 307 304 301 299 297 295 294 292 290 288 287 286 284 282 280 277 275 272 270 269 268 268 268 268 269 268 268 267 267 267 266 266 266
337 335 332 329 325 321 317 313 309 305 302 299 298 297 295 294 293 292 291 290 289 287 287 285 283 281 277 274 271 270 269 270 270 270 269 269 269 268 267 266 265 266
337 334 331 328 325 321 317 314 310 307 304 301 299 297 296 294 293 292 291 290 289 288 287 286 285 283 280 277 273 271 271 271 271 271 270 270 270 269 268 267 267 267
336 333 331 328 325 323 320 318 315 312 309 305 302 299 297 295 294 292 291 289 288 287 286 285 284 283 281 279 276 274 272 271 271 272 272 271 271 271 271 270 269 269
335 333 331 328 326 324 322 320 318 315 312 310 307 304 301 298 295 294 292 290 289 287 285 283 282 281 280 278 278 277 275 273 272 271 271 270 271 271 272 272 270 269
335 334 332 331 329 327 325 323 321 318 316 314 311 309 306 304 301 298 295 293 291 289 286 284 282 280 278 277 276 276 275 275 273 272 270 270 270 270 271 271 270 270
334 333 331 331 329 327 326 325 323 321 319 317 314 312 309 307 304 302 299 296 294 291 289 287 284 281 280 278 276 274 273 273 273 273 272 271 270 269 269 269 269 269
332 331 330 329 328 326 325 324 322 320 319 317 315 313 310 308 306 303 301 299 296 294 292 289 287 285 283 281 279 278 276 274 274 273 273 272 271 270 268 267 267 266
331 330 329 328 326 325 324 322 321 320 318 316 314 312 310 309 307 304 302 300 297 296 294 292 290 288 286 285 283 282 280 278 276 275 274 273 272 271 270 268 266 265
331 329 328 327 326 324 323 322 321 320 318 316 314 313 311 309 307 305 303 301 298 296 294 293 292 290 289 289 288 286 285 283 281 279 277 276 275 273 271 269 268 266
329 328 327 327 326 325 324 323 322 320 318 317 316 314 312 310 308 306 304 302 300 298 296 294 293 293 292 291 291 289 288 286 284 283 281 280 278 276 274 272 270 269
328 327 327 327 326 326 326 325 325 323 321 320 319 318 315 314 312 310 308 306 304 303 302 300 298 297 295 295 293 291 290 290 287 285 282 280 279 278 277 275 273 272
326 325 325 326 326 326 327 328 326 326 326 324 324 324 322 321 319 317 315 313 311 311 310 309 308 305 304 303 301 303 304 297 288 284 282 280 280 279 279 278 277 275
323 323 324 324 325 327 328 328 327 327 328 328 330 330 327 326 325 322 321 319 317 317 317 317 317 315 315 312 307 318 322 301 286 285 285 284 283 281 280 279 279 278
321 322 322 323 325 327 328 327 327 328 329 329 331 332 330 330 330 327 327 324 322 321 322 323 322 320 323 318 310 321 322 300 288 289 290 289 288 286 283 281 280 279
320 320 321 323 325 327 327 326 326 328 329 328 330 333 332 333 334 331 329 328 326 325 324 326 326 323 324 321 314 315 311 298 294 295 295 294 293 291 289 286 284 283
320 320 321 323 325 327 327 327 327 329 330 328 330 332 331 331 333 332 330 329 329 327 326 328 328 325 323 320 315 313 305 298 297 299 298 297 296 295 294 291 289 289
319 320 321 324 326 327 327 328 328 330 330 329 328 330 330 330 332 333 331 330 329 327 326 328 328 326 325 320 315 313 308 302 301 301 301 300 299 297 296 294 294 295
318 319 321 323 325 326 326 327 328 328 328 329 328 329 330 330 331 333 332 329 329 327 325 326 327 326 324 322 318 314 311 308 306 306 306 306 304 300 297 294 294 294
316 318 320 321 323 325 325 324 326 327 327 328 327 327 328 329 329 330 330 329 327 325 324 324 325 324 324 323 321 318 316 315 312 310 311 313 312 309 303 299 297 295
315 317 318 320 320 322 324 324 325 326 326 326 326 326 327 328 327 328 329 329 325 323 323 322 322 325 327 326 324 322 320 320 317 316 321 324 320 313 307 304 305 305
Height
1461 1460 1460 1460 1460 1460 1460 1460 1460 1459 1460 1460 1460 1461 1461 1461 1462 1462 1461 1461 1461 1460 1461 1462 1462 1463 1463 1464 1465 1465 1464 1465 1465 1466 1467 1466 1466 1467 1468 1468 1469 1470
1460 1459 1458 1458 1457 1457 1456 1456 1456 1456 1456 1456 1456 1456 1456 1457 1457 1457 1456 1456 1456 1455 1456 1456 1457 1457 1458 1458 1459 1459 1459 1459 1459 1460 1461 1461 1461 1462 1462 1463 1464 1464
1460 1458 1458 1456 1456 1455 1455 1454 1454 1453 1453 1452 1453 1453 1452 1452 1452 1452 1452 1451 1451 1451 1451 1451 1451 1452 1453 1453 1454 1453 1453 1453 1454 1455 1455 1455 1456 1456 1456 1457 1458 1458
1458 1457 1456 1455 1454 1454 1453 1453 1452 1451 1450 1450 1450 1450 1449 1449 1449 1448 1448 1447 1447 1446 1446 1446 1446 1447 1447 1448 1448 1448 1448 1448 1448 1450 1450 1449 1450 1450 1450 1452 1452 1452
1456 1455 1454 1454 1452 1452 1451 1450 1449 1448 1448 1447 1447 1447 1446 1446 1446 1445 1445 1445 1444 1443 1442 1441 1441 1441 1442 1442 1443 1442 1442 1443 1443 1445 1444 1443 1444 1445 1445 1446 1446 1446
1454 1453 1452 1451 1450 1449 1448 1447 1446 1446 1445 1444 1444 1443 1443 1442 1442 1442 1442 1441 1440 1439 1438 1437 1437 1436 1437 1437 1437 1437 1437 1437 1438 1439 1439 1438 1439 1439 1440 1440 1440 1441
1452 1451 1450 1449 1449 1448 1446 1446 1445 1444 1443 1442 1441 1440 1439 1439 1438 1438 1438 1437 1436 1435 1434 1434 1433 1432 1432 1432 1432 1431 1432 1432 1433 1433 1433 1432 1433 1434 1434 1435 1435 1435
1451 1449 1449 1448 1447 1446 1445 1443 1442 1441 1440 1439 1438 1437 1436 1435 1435 1434 1434 1433 1432 1431 1430 1430 1429 1429 1428 1428 1427 1427 1427 1427 1428 1428 1427 1427 1428 1428 1428 1429 1430 1429
1450 1448 1447 1446 1445 1443 1441 1440 1438 1437 1436 1435 1434 1433 1432 1432 1431 1430 1430 1429 1428 1427 1426 1426 1425 1425 1424 1424 1423 1423 1423 1423 1423 1423 1422 1422 1422 1422 1423 1424 1424 1423
1447 1446 1444 1443 1441 1439 1438 1436 1435 1434 1433 1432 1430 1429 1428 1428 1427 1427 1426 1425 1424 1423 1422 1422 1421 1421 1420 1420 1420 1419 1419 1418 1418 1418 1418 1417 1417 1418 1418 1419 1419 1418
1444 1442 1441 1439 1438 1436 1435 1434 1432 1431 1429 1428 1426 1425 1424 1423 1423 1422 1422 1421 1420 1419 1418 1418 1417 1417 1416 1416 1416 1415 1415 1414 1414 1413 1413 1413 1412 1412 1413 1413 1413 1412
1442 1440 1438 1436 1435 1433 1432 1430 1429 1427 1425 1424 1423 1421 1420 1420 1419 1418 1417 1417 1416 1415 1414 1414 1413 1413 1412 1412 1411 1411 1411 1410 1409 1409 1408 1408 1408 1407 1408 1408 1408 1407
1439 1437 1435 1434 1432 1430 1429 1427 1425 1424 1422 1421 1419 1418 1417 1416 1415 1414 1414 1413 1412 1411 1410 1409 1409 1408 1408 1408 1407 1407 1406 1406 1405 1404 1404 1403 1403 1402 1402 1402 1402 1402
1436 1434 1433 1431 1429 1427 1426 1424 1422 1421 1419 1418 1416 1415 1414 1413 1411 1410 1409 1409 1408 1407 1406 1406 1405 1405 1404 1404 1403 1402 1402 1401 1400 1400 1399 1398 1398 1398 1398 1397 1397 1397
1433 1431 1430 1428 1426 1425 1423 1421 1419 1418 1416 1415 1414 1412 1411 1410 1408 1407 1406 1405 1404 1404 1403 1402 1401 1401 1400 1400 1399 1398 1397 1397 1396 1395 1394 1394 1393 1393 1393 1392 1392 1392
1430 1428 1426 1425 1423 1421 1420 1418 1417 1415 1413 1412 1411 1410 1408 1407 1405 1404 1403 1401 1400 1400 1399 1399 1398 1398 1397 1396 1396 1395 1394 1393 1392 1391 1390 1389 1388 1388 1387 1387 1387 1387
1428 1425 1424 1422 1420 1418 1417 1415 1414 1412 1411 1409 1408 1407 1405 1404 1402 1401 1400 1399 1397 1397 1396 1396 1395 1395 1394 1394 1393 1392 1391 1389 1388 1387 1386 1385 1384 1383 1382 1382 1382 1382
1425 1423 1421 1419 1417 1416 1414 1413 1411 1410 1408 1407 1406 1404 1403 1402 1400 1399 1398 1396 1395 1395 1394 1393 1393 1392 1391 1391 1390 1389 1388 1386 1384 1382 1381 1380 1380 1379 1378 1378 1377 1377
1423 1420 1419 1417 1415 1414 1412 1411 1409 1408 1406 1405 1404 1402 1401 1400 1399 1397 1396 1395 1393 1392 1391 1391 1390 1389 1388 1387 1386 1386 1384 1382 1380 1378 1377 1377 1376 1376 1375 1374 1374 1373
1420 1418 1416 1415 1413 1412 1410 1408 1407 1405 1404 1403 1402 1400 1399 1398 1396 1395 1394 1392 1391 1389 1388 1388 1386 1385 1385 1384 1383 1383 1381 1378 1376 1376 1375 1374 1374 1373 1372 1371 1370 1369
1417 1416 1414 1412 1411 1410 1408 1406 1405 1403 1402 1401 1399 1398 1396 1395 1394 1392 1391 1389 1388 1386 1385 1384 1383 1382 1382 1380 1380 1380 1378 1374 1373 1373 1373 1372 1371 1370 1369 1368 1367 1366
1414 1413 1411 1410 1408 1407 1406 1404 1402 1401 1400 1398 1397 1396 1394 1393 1391 1390 1387 1386 1385 1383 1382 1382 1381 1380 1379 1378 1377 1377 1375 1371 1370 1370 1369 1368 1368 1366 1365 1364 1363 1362
1412 1410 1408 1407 1406 1404 1403 1401 1400 1398 1397 1395 1394 1393 1391 1390 1389 1387 1385 1383 1382 1381 1380 1379 1379 1378 1377 1376 1375 1374 1372 1369 1367 1366 1366 1365 1364 1363 1362 1361 1360 1360
1409 1408 1406 1404 1403 1402 1400 1399 1397 1396 1395 1393 1391 1390 1389 1387 1386 1385 1384 1382 1380 1379 1378 1378 1377 1376 1375 1374 1373 1371 1370 1367 1364 1363 1363 1362 1361 1360 1358 1357 1357 1357
1407 1406 1404 1402 1401 1400 1398 1396 1395 1394 1393 1391 1390 1388 1387 1386 1384 1383 1382 1381 1379 1378 1377 1376 1375 1374 1373 1372 1371 1370 1368 1366 1363 1361 1360 1359 1357 1356 1355 1354 1354 1354
1405 1403 1402 1400 1399 1397 1396 1394 1393 1392 1391 1389 1388 1387 1385 1384 1383 1382 1381 1380 1378 1377 1376 1374 1373 1372 1371 1370 1369 1367 1366 1364 1362 1360 1358 1357 1355 1353 1352 1351 1351 1351